GW3329 Weather Reports


Display with metric or nautical units.
time (UTC)temp
F
wind
direction
speed
MPH
gust
MPH
rain 1hr
in
rain 24hr
in
rain mn
in
humidity
%
barometer
mb
20260507032946 58 180 0.0 0.0 0.00 0.00 0.00 81 1020.8
20260507032443 59 193 0.0 0.0 0.00 0.00 0.00 81 1020.3
20260507031939 59 177 0.0 0.0 0.00 0.00 0.00 80 1020.4
20260507031436 59 177 0.0 0.0 0.00 0.00 0.00 78 1020.6
20260507030933 59 177 0.0 0.0 0.00 0.00 0.00 78 1020.4
20260507030430 59 169 0.0 0.0 0.00 0.00 0.00 77 1020.3
20260507025927 60 170 0.0 0.0 0.00 0.00 0.00 76 1020.0
20260507025424 60 164 0.0 0.0 0.00 0.00 0.00 76 1020.2
20260507024922 60 156 0.0 0.0 0.00 0.00 0.00 75 1019.9
20260507024419 61 159 0.0 0.0 0.00 0.00 0.00 74 1020.1
20260507023915 61 168 0.0 0.0 0.00 0.00 0.00 73 1019.9
20260507023412 62 142 0.0 0.0 0.00 0.00 0.00 73 1020.0
20260507022909 62 143 0.0 0.0 0.00 0.00 0.00 72 1020.0
20260507022406 62 143 0.0 0.0 0.00 0.00 0.00 71 1020.0
20260507021901 62 162 0.0 0.0 0.00 0.00 0.00 71 1019.8
20260507021357 63 169 0.0 1.0 0.00 0.00 0.00 70 1020.0
20260507020855 63 175 1.0 2.0 0.00 0.00 0.00 69 1019.9
20260507020351 63 162 0.0 3.0 0.00 0.00 0.00 68 1019.8
20260507015848 63 142 0.0 2.0 0.00 0.00 0.00 68 1019.9
20260507015346 64 167 0.0 1.0 0.00 0.00 0.00 67 1019.8
20260507014844 64 171 0.0 3.0 0.00 0.00 0.00 67 1019.7
20260507014339 64 290 2.0 4.0 0.00 0.00 0.00 68 1020.0
20260507013836 66 263 3.0 3.0 0.00 0.00 0.00 65 1019.7
20260507013333 66 244 1.0 3.0 0.00 0.00 0.00 65 1019.8
20260507012831 66 42 1.0 4.0 0.00 0.00 0.00 64 1019.9
20260507012326 66 267 2.0 4.0 0.00 0.00 0.00 62 1019.9
20260507011824 67 162 0.0 1.0 0.00 0.00 0.00 61 1019.8
20260507011320 67 102 0.0 2.0 0.00 0.00 0.00 61 1019.7
20260507010820 67 171 0.0 3.0 0.00 0.00 0.00 60 1019.4
20260507010316 67 78 1.0 7.0 0.00 0.00 0.00 61 1019.7
20260507005813 68 55 0.0 4.0 0.00 0.00 0.00 62 1019.9
20260507005309 68 132 0.0 6.0 0.00 0.00 0.00 60 1019.9
20260507004801 68 356 1.0 2.0 0.00 0.00 0.00 60 1019.6
20260507004258 68 222 2.0 4.0 0.00 0.00 0.00 60 1019.7
20260507003754 68 176 0.0 4.0 0.00 0.00 0.00 60 1019.8
20260507003250 69 168 2.0 3.0 0.00 0.00 0.00 59 1019.8
20260507002746 68 266 3.0 4.0 0.00 0.00 0.00 60 1019.7
20260507002242 69 296 1.0 7.0 0.00 0.00 0.00 60 1019.9
20260507001739 69 189 1.0 4.0 0.00 0.00 0.00 59 1019.6
20260507001237 70 189 1.0 6.0 0.00 0.00 0.00 59 1019.9
20260507000733 69 83 1.0 3.0 0.00 0.00 0.00 60 1019.6
20260507000228 70 205 1.0 3.0 0.00 0.00 0.00 57 1019.7
20260506235725 69 94 1.0 3.0 0.00 0.00 0.00 61 1019.3
20260506235221 70 199 3.0 8.0 0.00 0.00 0.00 59 1019.4
20260506234718 69 173 2.0 3.0 0.00 0.00 0.00 61 1019.3
20260506234215 70 179 3.0 4.0 0.00 0.00 0.00 59 1019.8
20260506233713 70 192 2.0 3.0 0.00 0.00 0.00 58 1019.6
20260506233209 69 155 2.0 6.0 0.00 0.00 0.00 61 1019.8
20260506232707 70 331 2.0 4.0 0.00 0.00 0.00 59 1019.6
20260506232200 69 215 2.0 7.0 0.00 0.00 0.00 59 1019.8
20260506231658 70 227 4.0 7.0 0.00 0.00 0.00 59 1019.8
20260506231157 71 169 1.0 4.0 0.00 0.00 0.00 57 1019.9
20260506230653 71 244 4.0 7.0 0.00 0.00 0.00 58 1019.9
20260506230150 71 290 2.0 6.0 0.00 0.00 0.00 58 1019.8
20260506225646 71 158 1.0 4.0 0.00 0.00 0.00 58 1020.0
20260506225143 71 238 3.0 4.0 0.00 0.00 0.00 57 1019.7
20260506224639 71 186 4.0 7.0 0.00 0.00 0.00 58 1020.0
20260506224136 71 250 2.0 4.0 0.00 0.00 0.00 57 1020.0
20260506223633 71 287 2.0 6.0 0.00 0.00 0.00 58 1020.2
20260506223128 71 50 0.0 6.0 0.00 0.00 0.00 58 1020.1
20260506222626 72 177 0.0 4.0 0.00 0.00 0.00 58 1020.2
20260506222122 72 199 2.0 7.0 0.00 0.00 0.00 57 1020.2
20260506221620 72 205 2.0 7.0 0.00 0.00 0.00 58 1020.1
20260506221118 71 116 1.0 4.0 0.00 0.00 0.00 59 1020.4
20260506220614 71 295 5.0 6.0 0.00 0.00 0.00 57 1020.5
20260506220109 71 31 2.0 3.0 0.00 0.00 0.00 57 1020.7
20260506215606 71 257 1.0 6.0 0.00 0.00 0.00 58 1020.7
20260506215102 72 289 1.0 3.0 0.00 0.00 0.00 56 1020.7
20260506214559 72 237 1.0 4.0 0.00 0.00 0.00 55 1020.6
20260506214056 72 191 1.0 7.0 0.00 0.00 0.00 55 1020.8
20260506213554 71 172 0.0 4.0 0.00 0.00 0.00 56 1020.7
20260506213051 71 336 1.0 2.0 0.00 0.00 0.00 54 1020.7
20260506212548 72 344 1.0 7.0 0.00 0.00 0.00 53 1020.7
20260506212043 72 159 1.0 7.0 0.00 0.00 0.00 55 1021.0
20260506211539 71 250 4.0 8.0 0.00 0.00 0.00 56 1020.6
20260506211036 71 60 0.0 3.0 0.00 0.00 0.00 57 1020.9
20260506210533 71 285 4.0 7.0 0.00 0.00 0.00 59 1021.0
20260506210029 71 170 2.0 6.0 0.00 0.00 0.00 60 1021.0
20260506205526 71 21 3.0 8.0 0.00 0.00 0.00 60 1020.9
20260506205021 71 221 2.0 4.0 0.00 0.00 0.00 59 1020.7
20260506204520 70 294 2.0 8.0 0.00 0.00 0.00 61 1021.0
20260506204016 70 293 6.0 11.0 0.00 0.00 0.00 61 1021.0
20260506203515 71 317 3.0 4.0 0.00 0.00 0.00 60 1021.1
20260506203010 71 117 0.0 4.0 0.00 0.00 0.00 61 1021.3
20260506202508 71 246 2.0 8.0 0.00 0.00 0.00 60 1021.2
20260506202004 71 29 1.0 8.0 0.00 0.00 0.00 60 1021.3
20260506201502 71 269 2.0 8.0 0.00 0.00 0.00 60 1021.0
20260506200958 72 136 2.0 9.0 0.00 0.00 0.00 60 1021.1
20260506200455 72 331 2.0 3.0 0.00 0.00 0.00 58 1021.1
20260506195951 71 164 0.0 6.0 0.00 0.00 0.00 61 1021.1
20260506195449 71 172 1.0 7.0 0.00 0.00 0.00 61 1021.5
20260506194945 70 254 2.0 7.0 0.00 0.00 0.00 61 1021.4
20260506194442 72 294 4.0 11.0 0.00 0.00 0.00 59 1021.2
20260506193939 72 284 4.0 9.0 0.00 0.00 0.00 59 1021.3
20260506193436 73 199 1.0 3.0 0.00 0.00 0.00 56 1021.2
20260506192932 73 153 0.0 1.0 0.00 0.00 0.00 55 1021.4
20260506192429 73 91 2.0 4.0 0.00 0.00 0.00 55 1021.6
20260506191926 71 161 2.0 6.0 0.00 0.00 0.00 55 1021.4
20260506191423 73 145 0.0 2.0 0.00 0.00 0.00 53 1021.6
20260506190920 71 133 1.0 4.0 0.00 0.00 0.00 55 1021.5
20260506190416 71 250 2.0 6.0 0.00 0.00 0.00 54 1021.6
20260506185913 71 64 0.0 4.0 0.00 0.00 0.00 54 1021.6
20260506185410 71 263 6.0 7.0 0.00 0.00 0.00 52 1021.7
20260506184907 70 226 1.0 3.0 0.00 0.00 0.00 54 1021.8
20260506184404 70 32 0.0 3.0 0.00 0.00 0.00 55 1021.9
20260506183902 70 36 2.0 7.0 0.00 0.00 0.00 55 1021.8
20260506183356 70 267 2.0 3.0 0.00 0.00 0.00 55 1021.7
20260506182854 70 296 3.0 7.0 0.00 0.00 0.00 55 1021.9
20260506182351 71 189 3.0 4.0 0.00 0.00 0.00 55 1021.7
20260506181848 70 78 0.0 3.0 0.00 0.00 0.00 55 1021.9
20260506181346 70 275 2.0 8.0 0.00 0.00 0.00 56 1021.7
20260506180843 69 227 1.0 3.0 0.00 0.00 0.00 57 1021.9
20260506180339 69 80 1.0 2.0 0.00 0.00 0.00 57 1022.0
20260506175836 69 129 1.0 4.0 0.00 0.00 0.00 58 1022.0
20260506175333 68 133 0.0 3.0 0.00 0.00 0.00 57 1021.9
20260506174830 68 265 3.0 4.0 0.00 0.00 0.00 57 1021.9
20260506174327 68 199 0.0 3.0 0.00 0.00 0.00 57 1021.7
20260506173824 69 155 1.0 3.0 0.00 0.00 0.00 57 1022.0
20260506173321 67 135 1.0 6.0 0.00 0.00 0.00 59 1021.8
20260506172818 68 249 1.0 8.0 0.00 0.00 0.00 58 1021.9
20260506172315 68 65 1.0 3.0 0.00 0.00 0.00 59 1022.1
20260506171812 68 234 4.0 4.0 0.00 0.00 0.00 57 1022.0
20260506171309 66 133 0.0 3.0 0.00 0.00 0.00 60 1022.1
20260506170807 67 23 1.0 2.0 0.00 0.00 0.00 60 1021.8
20260506170303 66 93 0.0 3.0 0.00 0.00 0.00 62 1021.9
20260506165802 67 148 2.0 3.0 0.00 0.00 0.00 58 1022.0
20260506165259 67 164 1.0 2.0 0.00 0.00 0.00 61 1021.9
20260506164755 67 221 2.0 3.0 0.00 0.00 0.00 59 1021.9
20260506164252 67 194 1.0 7.0 0.00 0.00 0.00 60 1021.9
20260506163749 66 37 1.0 3.0 0.00 0.00 0.00 59 1022.0
20260506163244 66 163 0.0 3.0 0.00 0.00 0.00 58 1021.8
20260506162740 66 85 1.0 3.0 0.00 0.00 0.00 61 1021.9
20260506162238 65 210 0.0 0.0 0.00 0.00 0.00 62 1022.0
20260506161730 65 76 1.0 2.0 0.00 0.00 0.00 62 1021.9
20260506161227 65 284 1.0 3.0 0.00 0.00 0.00 63 1022.0
20260506160724 64 90 0.0 1.0 0.00 0.00 0.00 65 1021.8
20260506160221 64 100 0.0 3.0 0.00 0.00 0.00 64 1021.8
20260506155719 64 211 1.0 2.0 0.00 0.00 0.00 64 1021.9
20260506155216 63 157 0.0 2.0 0.00 0.00 0.00 68 1022.1
20260506153318 63 145 1.0 2.0 0.00 0.00 0.00 67 1021.7
20260506152815 62 148 1.0 2.0 0.00 0.00 0.00 69 1021.9
20260506152312 62 123 0.0 1.0 0.00 0.00 0.00 70 1021.8
20260506151810 60 124 1.0 2.0 0.00 0.00 0.00 74 1021.7
20260506151307 60 92 2.0 3.0 0.00 0.00 0.00 74 1022.0
20260506150804 60 124 1.0 2.0 0.00 0.00 0.00 74 1021.9
20260506150304 59 96 2.0 4.0 0.00 0.00 0.00 77 1021.9
20260506145757 59 88 2.0 2.0 0.00 0.00 0.00 75 1021.7
20260506145254 58 94 3.0 4.0 0.00 0.00 0.00 77 1021.8
20260506144752 58 112 0.0 2.0 0.00 0.00 0.00 78 1021.8
20260506144248 57 123 1.0 2.0 0.00 0.00 0.00 80 1021.8
20260506143746 57 115 0.0 1.0 0.00 0.00 0.00 81 1021.9
20260506143243 57 117 0.0 0.0 0.00 0.00 0.00 82 1021.9
20260506142742 56 92 2.0 3.0 0.00 0.00 0.00 82 1021.7
20260506142239 55 124 0.0 0.0 0.00 0.00 0.00 83 1021.8
20260506141738 54 96 0.0 0.0 0.00 0.00 0.00 85 1021.7
20260506141235 53 99 0.0 0.0 0.00 0.00 0.00 87 1021.6
20260506140732 53 94 1.0 2.0 0.00 0.00 0.00 87 1021.8
20260506140229 53 124 0.0 0.0 0.00 0.00 0.00 88 1021.7
20260506135726 52 125 0.0 0.0 0.00 0.00 0.00 88 1021.8
20260506135222 51 118 0.0 0.0 0.00 0.00 0.00 88 1021.6
20260506134719 51 118 0.0 0.0 0.00 0.00 0.00 90 1021.4
20260506134215 50 117 0.0 0.0 0.00 0.00 0.00 92 1021.8
20260506133713 50 126 0.0 0.0 0.00 0.00 0.00 93 1021.6
20260506133209 49 130 0.0 0.0 0.00 0.00 0.00 94 1021.5
20260506132707 48 130 0.0 0.0 0.00 0.00 0.00 94 1021.6
20260506132203 48 130 0.0 0.0 0.00 0.00 0.00 94 1021.4
20260506131701 48 130 0.0 0.0 0.00 0.00 0.00 95 1021.6
20260506131157 48 130 0.0 0.0 0.00 0.00 0.00 95 1021.6
20260506130654 48 130 0.0 0.0 0.00 0.00 0.00 94 1021.4
20260506130151 48 130 0.0 0.0 0.00 0.00 0.00 94 1021.5
20260506125649 48 130 0.0 0.0 0.00 0.00 0.00 94 1021.4
20260506125147 48 130 0.0 0.0 0.00 0.00 0.00 94 1021.5
20260506124645 48 130 0.0 0.0 0.00 0.00 0.00 94 1021.2
20260506124142 48 130 0.0 0.0 0.00 0.00 0.00 94 1021.0
20260506123639 48 128 0.0 0.0 0.00 0.00 0.00 93 1021.4
20260506123138 49 128 0.0 0.0 0.00 0.00 0.00 93 1021.1
20260506122635 49 146 0.0 0.0 0.00 0.00 0.00 93 1020.9
20260506122132 49 154 0.0 0.0 0.00 0.00 0.00 93 1021.0
20260506121629 49 138 0.0 0.0 0.00 0.00 0.00 93 1020.9
20260506121126 49 138 0.0 0.0 0.00 0.00 0.00 93 1020.9
20260506120624 49 141 0.0 0.0 0.00 0.00 0.00 93 1021.1
20260506120121 49 137 0.0 0.0 0.00 0.00 0.00 93 1021.0
20260506115620 49 132 0.0 0.0 0.00 0.00 0.00 93 1021.0
20260506115117 49 148 0.0 0.0 0.00 0.00 0.00 93 1020.9
20260506114614 49 134 0.0 1.0 0.00 0.00 0.00 94 1020.9
20260506114112 49 121 0.0 0.0 0.00 0.00 0.00 94 1020.8
20260506113610 49 105 0.0 0.0 0.00 0.00 0.00 94 1021.0
20260506113107 49 105 0.0 0.0 0.00 0.00 0.00 94 1020.8
20260506112604 49 104 0.0 0.0 0.00 0.00 0.00 94 1021.0
20260506112102 49 104 0.0 0.0 0.00 0.00 0.00 94 1021.1
20260506111559 49 103 0.0 0.0 0.00 0.00 0.00 93 1020.9
20260506111056 49 103 0.0 0.0 0.00 0.00 0.00 93 1021.0
20260506110554 49 102 0.0 0.0 0.00 0.00 0.00 93 1020.7
20260506110051 49 102 0.0 0.0 0.00 0.00 0.00 93 1020.7
20260506105547 49 101 0.0 1.0 0.00 0.00 0.00 93 1020.9
20260506105044 49 123 0.0 0.0 0.00 0.00 0.00 93 1020.8
20260506104542 49 133 0.0 0.0 0.00 0.00 0.00 94 1020.5
20260506104040 49 125 0.0 0.0 0.00 0.00 0.00 94 1020.8
20260506103537 49 136 0.0 0.0 0.00 0.00 0.00 94 1020.8
20260506103033 49 145 0.0 0.0 0.00 0.00 0.00 94 1020.8
20260506102532 49 145 0.0 0.0 0.00 0.00 0.00 95 1021.0
20260506102029 49 145 0.0 0.0 0.00 0.00 0.00 95 1020.9
20260506101525 49 145 0.0 0.0 0.00 0.00 0.00 95 1020.8
20260506101023 49 145 0.0 0.0 0.00 0.00 0.00 95 1020.8
20260506100521 48 145 0.0 0.0 0.00 0.00 0.00 95 1020.9
20260506100019 48 145 0.0 0.0 0.00 0.00 0.00 95 1020.9
20260506095517 48 145 0.0 0.0 0.00 0.00 0.00 95 1021.1
20260506095013 48 146 0.0 0.0 0.00 0.00 0.00 95 1021.0
20260506094511 48 146 0.0 0.0 0.00 0.00 0.00 95 1021.2
20260506094009 48 146 0.0 0.0 0.00 0.00 0.00 95 1021.2
20260506093507 48 146 0.0 0.0 0.00 0.00 0.00 95 1021.1
20260506093004 48 146 0.0 0.0 0.00 0.00 0.00 95 1021.0
20260506092502 49 146 0.0 0.0 0.00 0.00 0.00 95 1021.1
20260506091958 49 146 0.0 0.0 0.00 0.00 0.00 95 1021.1
20260506091457 49 146 0.0 0.0 0.00 0.00 0.00 95 1021.2
20260506090953 49 146 0.0 0.0 0.00 0.00 0.00 95 1021.2
20260506090451 49 145 0.0 0.0 0.00 0.00 0.00 95 1021.3
20260506085947 49 145 0.0 0.0 0.00 0.00 0.00 95 1021.2
20260506085444 49 145 0.0 0.0 0.00 0.00 0.00 95 1021.3
20260506084941 49 145 0.0 0.0 0.00 0.00 0.00 95 1021.3
20260506084437 49 145 0.0 0.0 0.00 0.00 0.00 95 1021.3
20260506083933 49 145 0.0 0.0 0.00 0.00 0.00 95 1021.4
20260506083431 49 145 0.0 0.0 0.00 0.00 0.00 95 1021.4
20260506082928 49 145 0.0 0.0 0.00 0.00 0.00 95 1021.5
20260506082425 49 145 0.0 0.0 0.00 0.00 0.00 94 1021.6
20260506081921 49 145 0.0 0.0 0.00 0.00 0.00 94 1021.5
20260506081420 50 145 0.0 0.0 0.00 0.00 0.00 94 1021.4
20260506080916 49 145 0.0 0.0 0.00 0.00 0.00 94 1021.4
20260506080413 49 145 0.0 0.0 0.00 0.00 0.00 94 1021.6
20260506073357 50 145 0.0 0.0 0.00 0.00 0.00 93 1021.6
20260506072854 50 145 0.0 0.0 0.00 0.00 0.00 93 1021.5
20260506072351 50 145 0.0 0.0 0.00 0.00 0.00 94 1021.4
20260506071849 51 145 0.0 0.0 0.00 0.00 0.00 94 1021.5
20260506071347 50 145 0.0 0.0 0.00 0.00 0.00 93 1021.3
20260506070843 50 145 0.0 0.0 0.00 0.00 0.00 93 1021.3
20260506070341 51 145 0.0 0.0 0.00 0.00 0.00 93 1021.2
20260506062318 51 145 0.0 0.0 0.00 0.00 0.00 92 1020.8
20260506061814 51 145 0.0 0.0 0.00 0.00 0.00 91 1020.8
20260506061310 52 145 0.0 0.0 0.00 0.00 0.00 91 1020.8
20260506060809 52 145 0.0 0.0 0.00 0.00 0.00 90 1020.8
20260506060307 52 145 0.0 0.0 0.00 0.00 0.00 90 1020.8
20260506051238 53 163 0.0 0.0 0.00 0.00 0.00 89 1020.4
20260506050736 53 163 0.0 0.0 0.00 0.00 0.00 88 1020.7
20260506050233 53 164 0.0 0.0 0.00 0.00 0.00 88 1020.5
20260506044723 54 140 0.0 0.0 0.00 0.00 0.00 87 1020.0
20260506044221 54 178 0.0 1.0 0.00 0.00 0.00 86 1020.0
20260506043718 54 219 0.0 2.0 0.00 0.00 0.00 87 1020.0
20260506043216 54 211 0.0 2.0 0.00 0.00 0.00 87 1020.0
20260506042714 54 186 2.0 2.0 0.00 0.00 0.00 87 1019.8
20260506042213 54 245 0.0 1.0 0.00 0.00 0.00 87 1019.8
20260506041711 54 247 1.0 2.0 0.00 0.00 0.00 87 1019.8
20260506041207 54 277 1.0 2.0 0.00 0.00 0.00 87 1019.8
20260506040705 54 239 1.0 2.0 0.00 0.00 0.00 86 1019.8
20260506040202 54 218 2.0 2.0 0.00 0.00 0.00 86 1019.4
20260506035658 55 220 0.0 2.0 0.00 0.00 0.00 86 1019.4
20260506035155 55 220 1.0 2.0 0.00 0.00 0.00 85 1019.3
20260506034651 55 217 0.0 2.0 0.00 0.00 0.00 85 1019.1
20260506034149 55 217 0.0 1.0 0.00 0.00 0.00 84 1019.1
20260506033646 55 213 1.0 2.0 0.00 0.00 0.00 83 1019.3